This is the latest recevied weather packets stored in our database for station/object NI4CE-10. If no packets are shown the sender has not sent any weather packets the latest 10 day(s).
| Time | Temp. | Humidity | Pressure | Rain* | Wind** | Luminosity | Snow |
|---|---|---|---|---|---|---|---|
| 1788628057 | 48.33° C | 100% | 1016 hPa | 0 mm | - | - | - |
| 1788627904 | 52.22° C | 100% | 1016.2 hPa | 0 mm | - | - | - |
| 1788627757 | 52.22° C | 100% | 1016.2 hPa | 0 mm | - | - | - |
| 1788627457 | 50.56° C | 100% | 1016.2 hPa | 0 mm | - | - | - |
| 1788627389 | 46.67° C | 100% | 1016.2 hPa | 0 mm | - | - | - |
| 1788627157 | 46.67° C | 100% | 1016.2 hPa | 0 mm | - | - | - |
| 1788627012 | 51.11° C | 100% | 1016.2 hPa | 0 mm | - | - | - |
| 1788627002 | 38.33° C | 100% | 1016.6 hPa | 0 mm | - | - | - |
| 1788626857 | 51.11° C | 100% | 1016.2 hPa | 0 mm | - | - | - |
| 1788626728 | 48.33° C | 100% | 1016.4 hPa | 0 mm | - | - | - |
| 1788626557 | 48.33° C | 100% | 1016.4 hPa | 0 mm | - | - | - |
| 1788626397 | 45° C | 100% | 1016.4 hPa | 0 mm | - | - | - |
| 1788626257 | 45° C | 100% | 1016.4 hPa | 0 mm | - | - | - |
| 1788625973 | 42.78° C | 100% | 1016.4 hPa | 0 mm | - | - | - |
| 1788625841 | 48.33° C | 100% | 1016.3 hPa | 0 mm | - | - | - |
| 1788625657 | 48.33° C | 100% | 1016.3 hPa | 0 mm | - | - | - |
| 1788625493 | 40.56° C | 100% | 1016.4 hPa | 0 mm | - | - | - |
| 1788625357 | 40.56° C | 100% | 1016.4 hPa | 0 mm | - | - | - |
| 1788625057 | 41.11° C | 100% | 1016.4 hPa | 0 mm | - | - | - |
| 1788624930 | 48.33° C | 100% | 1016.4 hPa | 0 mm | - | - | - |
| 1788624757 | 48.33° C | 100% | 1016.4 hPa | 0 mm | - | - | - |
| 1788624584 | 48.89° C | 100% | 1016.5 hPa | 0 mm | - | - | - |
| 1788624457 | 48.89° C | 100% | 1016.5 hPa | 0 mm | - | - | - |
| 1788624371 | 47.78° C | 100% | 1016.7 hPa | 0 mm | - | - | - |
| 1788624157 | 47.78° C | 100% | 1016.7 hPa | 0 mm | - | - | - |
* Rain latest hour (hover to see other rain measurements)
** Current wind speed in m/s (hover to see current wind gust speed)